Overview Statistics Trail Chart Weather Telemetry Raw packets
 

This is the latest recevied weather packets stored in our database for station/object IZ5RIE-13. If no packets are shown the sender has not sent any weather packets the latest 10 day(s).

<< 1 2 3 4 >>
Time Temp. Humidity Pressure Rain* Wind** Luminosity Snow
1788710679 32.22° C 100% 1021.5 hPa - - - -
1788709779 31.67° C 100% 1021.4 hPa - - - -
1788708879 31.67° C 100% 1021.6 hPa - - - -
1788707978 31.67° C 100% 1021.5 hPa - - - -
1788707110 31.67° C 100% 1021.5 hPa - - - -
1788707078 31.67° C 100% 1021.5 hPa - - - -
1788706178 31.67° C 100% 1021.6 hPa - - - -
1788705766 32.78° C 100% 1021.9 hPa - - - -
1788705278 31.67° C 100% 1021.6 hPa - - - -
1788704378 31.67° C 100% 1021.6 hPa - - - -
1788703477 32.22° C 100% 1021.6 hPa - - - -
1788702582 32.78° C 100% 1021.6 hPa - - - -
1788701682 32.22° C 100% 1021.6 hPa - - - -
1788700782 32.78° C 100% 1021.7 hPa - - - -
1788699882 32.22° C 100% 1021.7 hPa - - - -
1788698982 31.67° C 100% 1021.8 hPa - - - -
1788698081 32.78° C 100% 1021.9 hPa - - - -
1788697181 32.78° C 100% 1021.9 hPa - - - -
1788696318 33.33° C 80% 1021.9 hPa - - - -
1788696281 33.33° C 80% 1021.9 hPa - - - -
1788695412 33.89° C 79% 1022 hPa - - - -
1788695381 33.89° C 79% 1022 hPa - - - -
1788694481 35° C 100% 1021.9 hPa - - - -
1788693581 34.44° C 100% 1022 hPa - - - -
1788692680 32.78° C 100% 1022.2 hPa - - - -

* Rain since midnight (hover to see other rain measurements)
** Current wind speed in m/s (hover to see current wind gust speed)